Flag for Austria Weather past 2 weeks in Graz, Styria, Austria

Now
34 °F

Clear.


Feels Like: 34 °F
Forecast: 25 / 48 °F
Wind: 1 mph from North

Location: Graz-Thalerhof-Flughafen

Current Time: Mar 3, 2015 at 9:39:16 PM

Latest Report: Mar 3, 2015 at 8:50 PM


Visibility: 10 mi

Pressure: 30.21 "Hg

Humidity: 65%

Dew point: 23 °F

Location of GrazLocation

Historic Weather in Graz — Graph

°F

Graz temperature yesterday

Maximum temperature yesterday: 57 °F (at 1:50 PM)
Minimum temperature yesterday: 32 °F (at 10:20 PM)
Average temperature yesterday: 41 °F

Past Weeks' High & Low Weather Summary

 TemperatureHumidityPressure
High57 °F (Mar 2, 1:50 PM)100% (Feb 16, 8:20 PM)30.72 "Hg (Feb 16, 8:20 PM)
Low21 °F (Feb 20, 7:20 AM)20% (Mar 3, 2:20 PM)29.59 "Hg (Feb 23, 3:50 PM)
Average39 °F75%30.02 "Hg
* Reported Feb 16 8:20 PM — Mar 3 8:20 PM, Graz, Weather by CustomWeather, © 2015

Note: Actual official high and low records may vary slightly from our data, if they occured in-between our weather recording intervals... More about our weather records

Advertising

Graz weather history for previous 24 hours

 ConditionsComfort  
Time TempWeatherWind HumidityBarometerVisibility
8:20 PM
Tue, Mar 3
36 °FClear.1 mph60%30.21 "Hg10 mi
7:50 PM37 °FPassing clouds.3 mph56%30.21 "HgN/A
7:20 PM41 °FClear.2 mph39%30.18 "Hg10 mi
6:50 PM41 °FClear.2 mph42%30.21 "Hg10 mi
6:20 PM45 °FClear.3 mph31%30.18 "Hg10 mi
5:50 PM46 °FClear.5 mph29%30.18 "Hg10 mi
5:20 PM50 °FSunny.2 mph24%30.18 "Hg10 mi
4:50 PM52 °FSunny.2 mph20%30.18 "Hg10 mi
4:20 PM52 °FPassing clouds.3 mph22%30.18 "HgN/A
3:50 PM52 °FPassing clouds.9 mph20%30.18 "HgN/A
3:20 PM52 °FPassing clouds.9 mph22%30.18 "HgN/A
2:50 PM52 °FPassing clouds.10 mph22%30.18 "HgN/A
2:20 PM52 °FPassing clouds.12 mph20%30.21 "HgN/A
1:50 PM50 °FPassing clouds.13 mph22%30.21 "HgN/A
1:20 PM50 °FPassing clouds.12 mph24%30.21 "HgN/A
12:50 PM50 °FPassing clouds.15 mph24%30.21 "HgN/A
12:20 PM50 °FScattered clouds.14 mph25%30.21 "HgN/A
11:50 AM48 °FPassing clouds.14 mph27%30.21 "HgN/A
11:20 AM48 °FPassing clouds.10 mph29%30.21 "HgN/A
10:50 AM46 °FPassing clouds.9 mph32%30.21 "HgN/A
10:20 AM46 °FPassing clouds.10 mph29%30.21 "HgN/A
9:50 AM45 °FPassing clouds.8 mph31%30.21 "HgN/A
9:20 AM45 °FPassing clouds.7 mph34%30.21 "HgN/A
8:50 AM43 °FPassing clouds.8 mph34%30.21 "HgN/A
8:20 AM41 °FPassing clouds.3 mph42%30.18 "HgN/A
7:50 AM36 °FSunny.3 mph70%30.18 "Hg10 mi
7:20 AM36 °FSunny.1 mph52%30.15 "Hg10 mi
6:50 AM30 °FSunny.1 mph59%30.15 "Hg10 mi
6:20 AM32 °FClear.3 mph60%30.12 "Hg10 mi
5:50 AM36 °FClear.5 mph52%30.12 "Hg10 mi
5:20 AM37 °FPassing clouds.5 mph41%30.12 "HgN/A
4:50 AM37 °FPassing clouds.2 mph45%30.09 "HgN/A
4:20 AM39 °FPassing clouds.2 mph36%30.07 "HgN/A
3:50 AM43 °FPassing clouds.10 mph31%30.04 "HgN/A
3:20 AM37 °FChilly.5 mph60%30.04 "HgN/A
2:50 AM34 °FChilly.7 mph75%30.01 "HgN/A
2:20 AM36 °FChilly.7 mph70%30.01 "HgN/A
1:50 AM34 °FChilly.6 mph81%30.01 "HgN/A
1:20 AM32 °FPassing clouds.3 mph93%29.98 "HgN/A
12:50 AM34 °FChilly.5 mph81%29.95 "HgN/A
12:20 AM34 °FChilly.2 mph81%29.95 "HgN/A
11:50 PM
Mon, Mar 2
36 °FPassing clouds.6 mph75%29.92 "HgN/A
11:20 PM37 °FPassing clouds.6 mph75%29.89 "HgN/A
10:50 PM36 °FPassing clouds.5 mph93%29.89 "HgN/A
10:20 PM32 °FPassing clouds.2 mph100%29.86 "HgN/A
9:50 PM36 °FPassing clouds.3 mph93%29.86 "HgN/A
9:20 PM37 °FPassing clouds.3 mph87%29.86 "HgN/A
Weather by CustomWeather, © 2015

See weather overviewHow to use our weather pages